星链-30296 (STARLINK-30296 )

导读

STARLINK-30296是美国太空探索技术公司(SpaceX)“星链”卫星互联网项目的卫星,于2023年8月22日发射升空。星链项目旨在构建全球卫星互联网星座,该卫星入轨后承担地面网络覆盖与通信服务任务,助力填补偏远地区网络空白,提升全球通信网络的覆盖广度与容量。

基本信息
目录编号:
57671
目录名称:
STARLINK-30296
国际标识:
2023-124J
轨道中心:
EARTH
卫星名称:
星链-30296
卫星全名:
星链-30296 (STARLINK-30296 )
卫星状态:
在轨 (已飞行1031 天)
发射日期:
2023-08-22 UTC
国别 :
美国 (US)
星等 :
--
轨道信息
数据来源 国际轨道数据 AOE轨道数据
星历时间 2026-06-18T09:48:23+0800
11小时前
查看轨道信息
2026-06-14T03:00:00+0800
4天前
查看轨道信息
半长轴 6853.43km 6853.302km
偏心率 0.0001141 0.0001114
轨道倾角 53.159° 53.156°
近地点辐角 110.134° 74.562°
升交点赤经 100.729° 120.629°
平近点角 249.978° 75.350°
近地点 474.511km 474.401km
远地点 476.075km 475.929km
周期 94.107分钟 94.104分钟
每日圈数 15.301741 15.302171
详细信息
固有亮度:
5
最大亮度:
0.3
卫星平台:
Starlink v2.0 mini
覆盖范围:
全球
运营商:
太空探索技术公司
运营商所在国:
美国
制造商(研发单位):
太空探索技术公司
制造商所在国:
美国
使用方式:
暂无
卫星简介
星链(Starlink)计划是由太空探索技术公司(SpaceX)提出的一个巨型低轨卫星互联网星座项目,计划在2019年至2024年间在太空搭建由约1.2万颗卫星组成的“星链”网络,其中1584颗将部署在地球上空550千米处的近地轨道,并从2020年开始工作。该卫星仍在工作。
2D轨道图
3D轨道图
轨道高度分析图
轨道倾角分析图
轨道综合分析图
查看轨道综合分析图